Terminal Aerodrome Forecast
Issued by NWS Brownsville, TX

Home | Current Version | Previous Version | Text Only | Print | Product List | Glossary On
Versions: 1 2 3 4 5 6 7 8 9 10 11 12 13 14 15 16
204
FTUS44 KBRO 301132
TAFHRL
TAF
KHRL 301132Z 3012/3112 12006KT P6SM SKC
     FM301400 13010KT P6SM SCT040
     FM301800 15012G20KT P6SM VCTS SCT040CB BKN060
     FM302000 15015G25KT P6SM SCT040
     FM302300 13011KT P6SM SCT250
     FM310900 15004KT P6SM BKN150=

USA.gov is the U.S. government's official web portal to all federal, state and local government web resources and services.